User: anonymous   Login
Location: *
(34.8620°S, 39.3380°E)
Time: 08:30:02
(UTC+00:00)
Language:

Cosmos 1184 Rocket - Orbit

View from above orbital plane
View from above orbital plane
View from above satellite
View from above satellite

Ground track
Ground track

The orbit data is extracted from the following two-line orbital elements,

1 11822U 80044B   21294.02692267  .00008467  00000-0  12710-3 0  9991
2 11822  81.2248  95.0493 0009937 124.0255 236.1939 15.54661990278396
Epoch (UTC): 21 October 2021 00:38:46
Eccentricity: 0.0009937
inclination: 81.2248°
perigee height: 396 km
apogee height: 410 km
right ascension of ascending node: 95.0493°
argument of perigee: 124.0255°
revolutions per day: 15.54661990
mean anomaly at epoch: 236.1939°
orbit number at epoch: 27839

The dashed part of the orbit path shows where the satellite is in the earth's shadow,  

DLR